FDB863 OMDB-OEDF

Flight info

Callsign FDB863
Flight time 0h 58m
Altitude 26000
Route NABIX P699 ORMID DCT NARMI
Aircraft B738/M-SDE2E3FGHIRWXY/LB1

Departure

Time 2026-05-06 16:37
Airport Dubai International Airport (OMDB)

Arrival

Time 2026-05-06 17:35
Airport King Fahd International Airport (OEDF)
Time Latitude Longitude Altitude Speed Heading
2026-05-06 16:03 25.25600 55.37480 20 ft 0 kts 121°
2026-05-06 16:23 25.25603 55.37475 20 ft 2 kts 119°
2026-05-06 16:23 25.25609 55.37459 20 ft 2 kts 118°
2026-05-06 16:23 25.25618 55.37447 22 ft 2 kts 148°
2026-05-06 16:24 25.25632 55.37440 20 ft 2 kts 163°
2026-05-06 16:24 25.25644 55.37438 23 ft 2 kts 208°
2026-05-06 16:24 25.25649 55.37440 23 ft 0 kts 216°
2026-05-06 16:30 25.25648 55.37440 23 ft 1 kts 215°
2026-05-06 16:30 25.25600 55.37407 20 ft 8 kts 211°
2026-05-06 16:30 25.25557 55.37379 21 ft 7 kts 208°
2026-05-06 16:31 25.25528 55.37359 22 ft 4 kts 212°
2026-05-06 16:31 25.25507 55.37347 21 ft 2 kts 195°
2026-05-06 16:31 25.25495 55.37349 21 ft 2 kts 160°
2026-05-06 16:31 25.25469 55.37377 21 ft 9 kts 128°
2026-05-06 16:32 25.25430 55.37387 22 ft 7 kts 195°
2026-05-06 16:32 25.25364 55.37398 23 ft 14 kts 135°
2026-05-06 16:32 25.25311 55.37488 23 ft 14 kts 124°
2026-05-06 16:32 25.25262 55.37575 24 ft 13 kts 121°
2026-05-06 16:33 25.25218 55.37653 23 ft 11 kts 122°
2026-05-06 16:33 25.25179 55.37722 23 ft 10 kts 122°
2026-05-06 16:33 25.25144 55.37785 26 ft 9 kts 122°
2026-05-06 16:34 25.25063 55.37931 23 ft 16 kts 120°
2026-05-06 16:34 25.25003 55.38035 24 ft 16 kts 121°
2026-05-06 16:34 25.24950 55.38115 22 ft 11 kts 152°
2026-05-06 16:34 25.24895 55.38103 24 ft 6 kts 209°
2026-05-06 16:35 25.24874 55.38090 26 ft 1 kts 209°
2026-05-06 16:35 25.24846 55.38072 28 ft 5 kts 211°
2026-05-06 16:35 25.24827 55.38059 29 ft 2 kts 212°
2026-05-06 16:35 25.24820 55.38054 29 ft 3 kts 211°
2026-05-06 16:36 25.24810 55.38022 29 ft 5 kts 278°
2026-05-06 16:36 25.24842 55.37963 29 ft 27 kts 301°
2026-05-06 16:36 25.25072 55.37549 29 ft 98 kts 301°
2026-05-06 16:36 25.25544 55.36699 28 ft 158 kts 301°
2026-05-06 16:37 25.26181 55.35547 360 ft 182 kts 303°
2026-05-06 16:37 25.26853 55.34357 1116 ft 178 kts 303°
2026-05-06 16:37 25.27503 55.33180 1835 ft 183 kts 303°
2026-05-06 16:37 25.28219 55.31890 2132 ft 212 kts 303°
2026-05-06 16:38 25.29008 55.30408 2373 ft 236 kts 293°
2026-05-06 16:38 25.29167 55.28600 2934 ft 242 kts 255°
2026-05-06 16:38 25.28711 55.26770 3369 ft 259 kts 260°
2026-05-06 16:38 25.28486 55.24726 3748 ft 274 kts 265°
2026-05-06 16:39 25.28326 55.22609 4424 ft 277 kts 265°
2026-05-06 16:39 25.28165 55.20488 5161 ft 278 kts 265°
2026-05-06 16:39 25.27989 55.18353 5866 ft 281 kts 264°
2026-05-06 16:39 25.27797 55.16199 6544 ft 284 kts 264°
2026-05-06 16:40 25.27592 55.14019 7197 ft 287 kts 263°
2026-05-06 16:40 25.27375 55.11813 7861 ft 290 kts 263°
2026-05-06 16:40 25.27151 55.09584 8535 ft 294 kts 263°
2026-05-06 16:40 25.26920 55.07325 9202 ft 298 kts 263°
2026-05-06 16:41 25.26698 55.05183 9787 ft 299 kts 263°
2026-05-06 16:41 25.26459 55.02897 10185 ft 304 kts 263°
2026-05-06 16:41 25.26209 55.00513 10311 ft 320 kts 263°
2026-05-06 16:41 25.25945 54.98018 10452 ft 333 kts 263°
2026-05-06 16:42 25.25671 54.95432 10604 ft 344 kts 263°
2026-05-06 16:42 25.25391 54.92796 10916 ft 347 kts 264°
2026-05-06 16:42 25.25109 54.90147 11310 ft 348 kts 264°
2026-05-06 16:42 25.24825 54.87488 11703 ft 349 kts 264°
2026-05-06 16:43 25.24539 54.84817 12090 ft 351 kts 264°
2026-05-06 16:43 25.24256 54.82174 12478 ft 352 kts 264°
2026-05-06 16:43 25.23967 54.79480 12879 ft 354 kts 264°
2026-05-06 16:43 25.23677 54.76776 13269 ft 356 kts 264°
2026-05-06 16:44 25.23384 54.74054 13657 ft 357 kts 264°
2026-05-06 16:44 25.23089 54.71326 14015 ft 359 kts 264°
2026-05-06 16:44 25.22794 54.68588 14382 ft 360 kts 264°
2026-05-06 16:44 25.22495 54.65832 14752 ft 362 kts 264°
2026-05-06 16:45 25.22196 54.63074 15139 ft 363 kts 264°
2026-05-06 16:45 25.21896 54.60303 15514 ft 364 kts 264°
2026-05-06 16:45 25.21593 54.57522 15880 ft 366 kts 264°
2026-05-06 16:45 25.21326 54.54722 16235 ft 367 kts 269°
2026-05-06 16:46 25.21430 54.51909 16584 ft 368 kts 278°
2026-05-06 16:46 25.21977 54.49157 16957 ft 368 kts 286°
2026-05-06 16:46 25.22679 54.46430 17285 ft 370 kts 287°
2026-05-06 16:46 25.23400 54.43698 17607 ft 372 kts 287°
2026-05-06 16:47 25.24117 54.40947 17954 ft 373 kts 286°
2026-05-06 16:47 25.24826 54.38179 18249 ft 375 kts 286°
2026-05-06 16:47 25.25527 54.35397 18562 ft 376 kts 285°
2026-05-06 16:47 25.26226 54.32606 18827 ft 378 kts 285°
2026-05-06 16:48 25.26925 54.29806 19116 ft 379 kts 285°
2026-05-06 16:48 25.27624 54.26998 19396 ft 380 kts 285°
2026-05-06 16:48 25.28327 54.24172 19665 ft 382 kts 285°
2026-05-06 16:48 25.29029 54.21343 19952 ft 383 kts 285°
2026-05-06 16:49 25.29735 54.18504 20238 ft 383 kts 285°
2026-05-06 16:49 25.30440 54.15661 20524 ft 384 kts 285°
2026-05-06 16:49 25.31145 54.12806 20778 ft 386 kts 284°
2026-05-06 16:49 25.31794 54.09925 21032 ft 387 kts 283°
2026-05-06 16:50 25.32404 54.07027 21292 ft 388 kts 283°
2026-05-06 16:50 25.33005 54.04124 21555 ft 388 kts 283°
2026-05-06 16:50 25.33612 54.01208 21796 ft 389 kts 283°
2026-05-06 16:50 25.34226 53.98290 22039 ft 390 kts 283°
2026-05-06 16:51 25.34837 53.95402 22265 ft 392 kts 283°
2026-05-06 16:51 25.35459 53.92470 22491 ft 393 kts 283°
2026-05-06 16:51 25.36083 53.89528 22714 ft 394 kts 283°
2026-05-06 16:51 25.36717 53.86541 22936 ft 394 kts 283°
2026-05-06 16:52 25.37333 53.83624 23142 ft 395 kts 283°
2026-05-06 16:52 25.37953 53.80661 23339 ft 396 kts 282°
2026-05-06 16:52 25.38573 53.77685 23508 ft 397 kts 282°
2026-05-06 16:52 25.39193 53.74706 23685 ft 397 kts 282°
2026-05-06 16:53 25.39812 53.71731 23868 ft 397 kts 282°
2026-05-06 16:53 25.40431 53.68753 24030 ft 398 kts 282°
2026-05-06 16:53 25.41052 53.65765 24188 ft 399 kts 282°
2026-05-06 16:53 25.41673 53.62775 24354 ft 399 kts 282°
2026-05-06 16:54 25.42293 53.59786 24514 ft 399 kts 282°
2026-05-06 16:54 25.42914 53.56791 24669 ft 400 kts 282°
2026-05-06 16:54 25.43538 53.53796 24823 ft 400 kts 282°
2026-05-06 16:54 25.44165 53.50794 24969 ft 400 kts 282°
2026-05-06 16:55 25.44789 53.47797 25114 ft 401 kts 282°
2026-05-06 16:55 25.45415 53.44793 25267 ft 401 kts 282°
2026-05-06 16:55 25.46040 53.41785 25405 ft 401 kts 282°
2026-05-06 16:55 25.46664 53.38778 25548 ft 402 kts 282°
2026-05-06 16:56 25.47290 53.35760 25644 ft 403 kts 282°
2026-05-06 16:56 25.47915 53.32742 25752 ft 403 kts 282°
2026-05-06 16:56 25.48541 53.29713 25801 ft 404 kts 282°
2026-05-06 16:56 25.49169 53.26676 25804 ft 405 kts 282°
2026-05-06 16:57 25.49795 53.23643 25804 ft 404 kts 282°
2026-05-06 16:57 25.50419 53.20614 25811 ft 404 kts 282°
2026-05-06 16:57 25.51042 53.17585 25811 ft 403 kts 282°
2026-05-06 16:57 25.51663 53.14562 25812 ft 403 kts 282°
2026-05-06 16:58 25.52284 53.11536 25811 ft 403 kts 282°
2026-05-06 16:58 25.52903 53.08515 25814 ft 403 kts 282°
2026-05-06 16:58 25.53522 53.05491 25811 ft 402 kts 282°
2026-05-06 16:58 25.54140 53.02472 25815 ft 402 kts 282°
2026-05-06 16:59 25.54757 52.99449 25812 ft 402 kts 282°
2026-05-06 16:59 25.55374 52.96428 25815 ft 402 kts 281°
2026-05-06 16:59 25.55990 52.93408 25818 ft 402 kts 281°
2026-05-06 16:59 25.56631 52.90395 25818 ft 403 kts 284°
2026-05-06 17:00 25.57459 52.87432 25826 ft 403 kts 286°
2026-05-06 17:00 25.58332 52.84483 25826 ft 403 kts 287°
2026-05-06 17:00 25.59220 52.81531 25821 ft 404 kts 287°
2026-05-06 17:00 25.60108 52.78579 25823 ft 404 kts 287°
2026-05-06 17:01 25.60992 52.75627 25823 ft 404 kts 287°
2026-05-06 17:01 25.61871 52.72672 25825 ft 404 kts 287°
2026-05-06 17:01 25.62748 52.69710 25824 ft 404 kts 286°
2026-05-06 17:01 25.63621 52.66750 25820 ft 404 kts 286°
2026-05-06 17:02 25.64491 52.63793 25823 ft 404 kts 286°
2026-05-06 17:02 25.65360 52.60830 25830 ft 404 kts 286°
2026-05-06 17:02 25.66230 52.57863 25832 ft 405 kts 286°
2026-05-06 17:02 25.67099 52.54897 25834 ft 405 kts 286°
2026-05-06 17:03 25.67968 52.51927 25832 ft 405 kts 286°
2026-05-06 17:03 25.68838 52.48953 25830 ft 406 kts 286°
2026-05-06 17:03 25.69707 52.45976 25828 ft 406 kts 286°
2026-05-06 17:03 25.70575 52.43003 25829 ft 406 kts 286°
2026-05-06 17:04 25.71444 52.40028 25829 ft 405 kts 286°
2026-05-06 17:04 25.72310 52.37057 25826 ft 405 kts 286°
2026-05-06 17:04 25.73174 52.34088 25831 ft 404 kts 286°
2026-05-06 17:04 25.74036 52.31126 25830 ft 404 kts 286°
2026-05-06 17:05 25.74897 52.28166 25827 ft 403 kts 286°
2026-05-06 17:05 25.75756 52.25207 25830 ft 402 kts 286°
2026-05-06 17:05 25.76612 52.22260 25832 ft 402 kts 286°
2026-05-06 17:05 25.77468 52.19308 25830 ft 401 kts 286°
2026-05-06 17:06 25.78321 52.16366 25829 ft 400 kts 286°
2026-05-06 17:06 25.79156 52.13487 25808 ft 381 kts 286°
2026-05-06 17:06 25.79946 52.10766 25826 ft 362 kts 285°
2026-05-06 17:06 25.80702 52.08157 25818 ft 351 kts 285°
2026-05-06 17:07 25.81444 52.05587 25830 ft 349 kts 285°
2026-05-06 17:07 25.82182 52.03024 25841 ft 349 kts 285°
2026-05-06 17:07 25.82921 52.00458 25844 ft 350 kts 285°
2026-05-06 17:07 25.83660 51.97888 25843 ft 350 kts 285°
2026-05-06 17:08 25.84401 51.95313 25838 ft 350 kts 285°
2026-05-06 17:08 25.85144 51.92732 25837 ft 351 kts 285°
2026-05-06 17:08 25.85874 51.90192 25836 ft 351 kts 285°
2026-05-06 17:08 25.86614 51.87615 25829 ft 350 kts 285°
2026-05-06 17:09 25.87355 51.85035 25827 ft 350 kts 285°
2026-05-06 17:09 25.88093 51.82465 25824 ft 350 kts 285°
2026-05-06 17:09 25.88830 51.79893 25824 ft 349 kts 285°
2026-05-06 17:09 25.89567 51.77321 25824 ft 349 kts 285°
2026-05-06 17:10 25.90302 51.74755 25826 ft 349 kts 285°
2026-05-06 17:10 25.91036 51.72190 25825 ft 348 kts 285°
2026-05-06 17:10 25.91767 51.69631 25824 ft 348 kts 285°
2026-05-06 17:10 25.92498 51.67072 25828 ft 348 kts 285°
2026-05-06 17:11 25.93229 51.64511 25826 ft 347 kts 285°
2026-05-06 17:11 25.93960 51.61953 25830 ft 347 kts 285°
2026-05-06 17:11 25.94690 51.59399 25829 ft 347 kts 285°
2026-05-06 17:11 25.95420 51.56843 25825 ft 347 kts 285°
2026-05-06 17:12 25.96149 51.54286 25827 ft 347 kts 285°
2026-05-06 17:12 25.96857 51.51801 25829 ft 347 kts 285°
2026-05-06 17:12 25.97585 51.49240 25828 ft 347 kts 285°
2026-05-06 17:12 25.98312 51.46684 25827 ft 347 kts 285°
2026-05-06 17:13 25.99043 51.44123 25827 ft 347 kts 285°
2026-05-06 17:13 25.99774 51.41561 25832 ft 348 kts 285°
2026-05-06 17:13 26.00503 51.39000 25833 ft 348 kts 285°
2026-05-06 17:13 26.01230 51.36436 25836 ft 348 kts 285°
2026-05-06 17:14 26.01957 51.33870 25810 ft 348 kts 285°
2026-05-06 17:14 26.02690 51.31274 25834 ft 356 kts 285°
2026-05-06 17:14 26.03435 51.28626 25836 ft 361 kts 284°
2026-05-06 17:14 26.04174 51.25976 25823 ft 355 kts 284°
2026-05-06 17:15 26.04898 51.23398 25816 ft 343 kts 284°
2026-05-06 17:15 26.05597 51.20919 25810 ft 330 kts 284°
2026-05-06 17:15 26.06271 51.18534 25812 ft 317 kts 284°
2026-05-06 17:15 26.06917 51.16248 25805 ft 304 kts 284°
2026-05-06 17:16 26.07535 51.14058 25596 ft 300 kts 284°
2026-05-06 17:16 26.08170 51.11792 24741 ft 317 kts 285°
2026-05-06 17:16 26.08834 51.09409 23704 ft 343 kts 285°
2026-05-06 17:16 26.09554 51.06835 23048 ft 351 kts 285°
2026-05-06 17:17 26.10276 51.04266 22724 ft 346 kts 286°
2026-05-06 17:17 26.10988 51.01731 22422 ft 342 kts 286°
2026-05-06 17:17 26.11696 50.99212 22046 ft 340 kts 286°
2026-05-06 17:17 26.12398 50.96707 21654 ft 338 kts 286°
2026-05-06 17:18 26.13095 50.94217 21279 ft 337 kts 286°
2026-05-06 17:18 26.13788 50.91738 20922 ft 335 kts 286°
2026-05-06 17:18 26.14477 50.89270 20572 ft 333 kts 286°
2026-05-06 17:18 26.15161 50.86823 20203 ft 328 kts 286°
2026-05-06 17:19 26.15835 50.84408 19674 ft 327 kts 286°
2026-05-06 17:19 26.16509 50.81990 19197 ft 325 kts 286°
2026-05-06 17:19 26.17176 50.79602 18803 ft 323 kts 287°
2026-05-06 17:19 26.17844 50.77214 18432 ft 323 kts 287°
2026-05-06 17:20 26.18511 50.74820 18022 ft 324 kts 287°
2026-05-06 17:20 26.19176 50.72411 17563 ft 325 kts 286°
2026-05-06 17:20 26.19840 50.70001 17117 ft 326 kts 286°
2026-05-06 17:20 26.20508 50.67580 16667 ft 327 kts 286°
2026-05-06 17:21 26.21180 50.65153 16226 ft 329 kts 287°
2026-05-06 17:21 26.21854 50.62720 15785 ft 329 kts 287°
2026-05-06 17:21 26.22529 50.60282 15354 ft 330 kts 287°
2026-05-06 17:21 26.23206 50.57835 14933 ft 331 kts 287°
2026-05-06 17:22 26.23652 50.56222 14651 ft 328 kts 287°
2026-05-06 17:22 26.24317 50.53815 14225 ft 322 kts 287°
2026-05-06 17:22 26.24969 50.51453 13802 ft 318 kts 287°
2026-05-06 17:22 26.25620 50.49093 13372 ft 319 kts 287°
2026-05-06 17:23 26.26273 50.46725 12934 ft 321 kts 287°
2026-05-06 17:23 26.26929 50.44344 12493 ft 322 kts 287°
2026-05-06 17:23 26.27586 50.41957 12055 ft 323 kts 286°
2026-05-06 17:23 26.28243 50.39568 11622 ft 323 kts 286°
2026-05-06 17:24 26.28903 50.37169 11180 ft 324 kts 286°
2026-05-06 17:24 26.29562 50.34772 10760 ft 323 kts 285°
2026-05-06 17:24 26.30078 50.32345 10325 ft 319 kts 273°
2026-05-06 17:24 26.30032 50.29918 9922 ft 309 kts 265°
2026-05-06 17:25 26.29878 50.27561 9486 ft 301 kts 264°
2026-05-06 17:25 26.29718 50.25268 9032 ft 295 kts 264°
2026-05-06 17:25 26.29564 50.23019 8595 ft 289 kts 265°
2026-05-06 17:25 26.29418 50.20804 8168 ft 285 kts 265°
2026-05-06 17:26 26.29278 50.18615 7736 ft 282 kts 265°
2026-05-06 17:26 26.29142 50.16446 7307 ft 279 kts 265°
2026-05-06 17:26 26.29010 50.14308 6891 ft 274 kts 264°
2026-05-06 17:26 26.28882 50.12202 6484 ft 271 kts 264°
2026-05-06 17:27 26.28755 50.10114 6063 ft 269 kts 265°
2026-05-06 17:27 26.28628 50.08046 5613 ft 266 kts 264°
2026-05-06 17:27 26.28504 50.05998 5205 ft 263 kts 264°
2026-05-06 17:27 26.28381 50.03976 4767 ft 261 kts 264°
2026-05-06 17:28 26.28258 50.01962 4354 ft 259 kts 265°
2026-05-06 17:28 26.28135 49.99967 3933 ft 257 kts 265°
2026-05-06 17:28 26.28014 49.97996 3508 ft 255 kts 266°
2026-05-06 17:28 26.27894 49.96030 3131 ft 256 kts 267°
2026-05-06 17:29 26.27772 49.94072 3018 ft 249 kts 266°
2026-05-06 17:29 26.27653 49.92186 2977 ft 239 kts 266°
2026-05-06 17:29 26.27543 49.90384 2989 ft 228 kts 267°
2026-05-06 17:29 26.27439 49.88676 2987 ft 214 kts 267°
2026-05-06 17:30 26.27350 49.87093 2974 ft 196 kts 271°
2026-05-06 17:30 26.27691 49.85722 2979 ft 175 kts 300°
2026-05-06 17:30 26.28464 49.84716 2994 ft 171 kts 321°
2026-05-06 17:30 26.29558 49.84219 3022 ft 173 kts 342°
2026-05-06 17:31 26.30706 49.83790 2883 ft 174 kts 339°
2026-05-06 17:31 26.31826 49.83418 2667 ft 164 kts 341°
2026-05-06 17:31 26.32879 49.83095 2467 ft 153 kts 341°
2026-05-06 17:31 26.33892 49.82781 2283 ft 151 kts 342°
2026-05-06 17:32 26.34886 49.82473 2090 ft 145 kts 343°
2026-05-06 17:32 26.35837 49.82178 1910 ft 140 kts 345°
2026-05-06 17:32 26.36790 49.81882 1751 ft 146 kts 344°
2026-05-06 17:32 26.37770 49.81578 1556 ft 145 kts 345°
2026-05-06 17:33 26.38729 49.81278 1351 ft 141 kts 346°
2026-05-06 17:33 26.39666 49.80982 1165 ft 140 kts 346°
2026-05-06 17:33 26.40615 49.80702 1006 ft 142 kts 345°
2026-05-06 17:33 26.41568 49.80403 847 ft 143 kts 343°
2026-05-06 17:34 26.42521 49.80085 690 ft 144 kts 346°
2026-05-06 17:34 26.43491 49.79801 485 ft 142 kts 346°
2026-05-06 17:34 26.44421 49.79509 311 ft 134 kts 344°
2026-05-06 17:34 26.45299 49.79238 119 ft 129 kts 343°
2026-05-06 17:35 26.46120 49.78981 64 ft 105 kts 344°
2026-05-06 17:35 26.46657 49.78816 58 ft 46 kts 344°
2026-05-06 17:35 26.46903 49.78740 63 ft 30 kts 346°
2026-05-06 17:36 26.47243 49.78755 58 ft 21 kts 12°
2026-05-06 17:36 26.47346 49.78782 61 ft 13 kts 16°
2026-05-06 17:36 26.47428 49.78814 63 ft 12 kts 33°
2026-05-06 17:36 26.47465 49.78895 58 ft 12 kts 75°
2026-05-06 17:37 26.47487 49.78983 63 ft 12 kts 75°
2026-05-06 17:37 26.47505 49.79070 58 ft 11 kts 89°
2026-05-06 17:37 26.47453 49.79129 62 ft 11 kts 153°
2026-05-06 17:37 26.47384 49.79167 61 ft 11 kts 154°
2026-05-06 17:38 26.47318 49.79203 62 ft 11 kts 153°
2026-05-06 17:38 26.47253 49.79238 65 ft 10 kts 154°
2026-05-06 17:38 26.47190 49.79272 65 ft 10 kts 153°
2026-05-06 17:38 26.47129 49.79305 61 ft 10 kts 155°
2026-05-06 17:39 26.47069 49.79337 65 ft 10 kts 153°
2026-05-06 17:39 26.46985 49.79384 69 ft 9 kts 153°
2026-05-06 17:39 26.46908 49.79421 67 ft 22 kts 156°
2026-05-06 17:39 26.46829 49.79451 67 ft 11 kts 165°
2026-05-06 17:40 26.46749 49.79476 65 ft 11 kts 163°
2026-05-06 17:40 26.46722 49.79487 63 ft 3 kts 140°
2026-05-06 17:40 26.46717 49.79528 64 ft 4 kts 81°
2026-05-06 17:40 26.46720 49.79547 66 ft 0 kts 77°